Starlink 32282

operational
NORAD ID: 61006 Int'l Des: 2024-158 Owner: SPXS Country: US Constellation: starlink
LEOCIRCULAR

关于 Starlink 32282

正在加载描述...

实时位置

正在加载3D地球...

即将过境

高度历史

Altitude vs Time

uPlot chart will show altitude changes over time

两行轨道根数

1 61006U 24158S 25352.57508077 -.00000054 00000-0 10288-4 0 9992
2 61006 53.1605 82.2016 0001202 99.5810 260.5327 15.30188315 73236
Epoch: Dec 18, 2025 • Age: 13 hours

当前状态

高度 479.1 km
速度 7.63 km/s
星下点 44.66°N, 81.41°E
发射日期 Sep 5, 2024
运行时间 1.2 years
类型 internet

技术详情

分类 Payload
质量 730.00 kg
干质量 700.00 kg
总质量 730.00 kg
长度 0.30 m
直径 4.10 m
跨度 29.00 m
形状 Box + pan
制造商 SPXS
平台类型 Starlink V2M
阶段状态 In Orbit
所有者/国家 SPXS/US

大型星座

Loading constellations...